DW2213 Weather Reports


Display with metric or nautical units.
time (UTC)temp
F
wind
direction
speed
MPH
gust
MPH
rain 1hr
in
rain 24hr
in
rain mn
in
humidity
%
barometer
mb
20260506202306 65 89 4.0 6.0 0.00 0.00 0.00 67 1010.7
20260506201803 65 112 2.0 7.0 0.00 0.00 0.00 68 1010.6
20260506201304 65 83 5.0 7.0 0.00 0.00 0.00 67 1010.6
20260506200804 65 100 5.0 8.0 0.00 0.00 0.00 67 1010.5
20260506200304 66 103 3.0 6.0 0.00 0.00 0.00 68 1010.4
20260506195803 66 114 3.0 6.0 0.00 0.00 0.00 68 1010.3
20260506195306 66 99 3.0 8.0 0.00 0.00 0.00 68 1010.3
20260506194804 66 96 4.0 7.0 0.00 0.00 0.00 68 1010.2
20260506194303 66 115 4.0 6.0 0.00 0.00 0.00 67 1010.2
20260506193304 66 100 5.0 7.0 0.00 0.00 0.00 66 1010.1
20260506192803 66 107 4.0 7.0 0.00 0.00 0.00 66 1009.9
20260506192306 67 87 5.0 9.0 0.00 0.00 0.00 66 1010.0
20260506191804 67 117 3.0 6.0 0.00 0.00 0.00 66 1009.9
20260506191303 67 117 4.0 6.0 0.00 0.00 0.00 66 1009.8
20260506190804 67 125 3.0 8.0 0.00 0.00 0.00 66 1009.8
20260506190303 67 135 3.0 7.0 0.00 0.00 0.00 66 1009.8
20260506185804 67 124 6.0 9.0 0.00 0.00 0.00 66 1009.7
20260506185306 67 134 6.0 9.0 0.00 0.00 0.00 66 1009.6
20260506184804 67 119 6.0 9.0 0.00 0.00 0.00 65 1009.5
20260506184304 67 119 4.0 9.0 0.00 0.00 0.00 65 1009.6
20260506183803 67 114 6.0 9.0 0.00 0.00 0.00 65 1009.5
20260506183304 67 113 5.0 8.0 0.00 0.00 0.00 64 1009.5
20260506182804 67 126 6.0 12.0 0.00 0.00 0.00 64 1009.5
20260506182306 68 118 6.0 12.0 0.00 0.00 0.00 63 1009.4
20260506181804 68 120 6.0 9.0 0.00 0.00 0.00 63 1009.5
20260506181304 68 122 4.0 8.0 0.00 0.00 0.00 64 1009.4
20260506180804 68 119 7.0 12.0 0.00 0.00 0.00 63 1009.5
20260506180303 68 127 7.0 12.0 0.00 0.00 0.00 63 1009.5
20260506175803 68 99 6.0 13.0 0.00 0.00 0.00 63 1009.4
20260506175306 68 69 6.0 12.0 0.00 0.00 0.00 63 1009.4
20260506174803 68 105 7.0 12.0 0.00 0.00 0.00 63 1009.5
20260506174305 68 101 7.0 13.0 0.00 0.00 0.00 62 1009.6
20260506173304 69 112 5.0 9.0 0.00 0.00 0.00 62 1009.7
20260506172806 69 109 4.0 12.0 0.00 0.00 0.00 63 1009.7
20260506172307 69 90 6.0 9.0 0.00 0.00 0.00 62 1009.7
20260506170805 69 119 5.0 13.0 0.00 0.00 0.00 61 1009.7
20260506170305 69 75 6.0 13.0 0.00 0.00 0.00 61 1009.6
20260506165804 69 59 6.0 12.0 0.00 0.00 0.00 62 1009.7
20260506165306 69 87 7.0 12.0 0.00 0.00 0.00 61 1009.6
20260506164804 69 127 7.0 13.0 0.00 0.00 0.00 61 1009.5
20260506164304 70 103 7.0 14.0 0.00 0.00 0.00 61 1009.6
20260506163304 70 111 10.0 15.0 0.00 0.00 0.00 59 1009.6
20260506162804 70 78 7.0 13.0 0.00 0.00 0.00 59 1009.6
20260506162307 71 85 7.0 14.0 0.00 0.00 0.00 59 1009.5
20260506161805 71 101 5.0 15.0 0.00 0.00 0.00 58 1009.4
20260506161304 70 117 6.0 13.0 0.00 0.00 0.00 59 1009.4
20260506160804 70 114 7.0 14.0 0.00 0.00 0.00 58 1009.4
20260506155306 71 53 8.0 15.0 0.00 0.00 0.00 58 1009.5
20260506154305 71 82 8.0 12.0 0.00 0.00 0.00 58 1009.5
20260506152306 71 123 9.0 12.0 0.00 0.00 0.00 58 1009.5
20260506151304 71 84 8.0 15.0 0.00 0.00 0.00 57 1009.4
20260506150805 71 72 9.0 14.0 0.00 0.00 0.00 58 1009.4
20260506150305 71 108 7.0 12.0 0.00 0.00 0.00 58 1009.4
20260506145805 71 104 9.0 13.0 0.00 0.00 0.00 58 1009.5
20260506145306 72 89 10.0 18.0 0.00 0.00 0.00 56 1009.5
20260506144305 72 126 10.0 15.0 0.00 0.00 0.00 56 1009.5
20260506143804 73 142 8.0 15.0 0.00 0.00 0.00 55 1009.6
20260506143305 73 64 10.0 16.0 0.00 0.00 0.00 54 1009.8
20260506142804 74 26 10.0 21.0 0.00 0.00 0.00 54 1009.7
20260506141804 74 104 9.0 16.0 0.00 0.00 0.00 55 1009.8
20260506141304 73 85 9.0 13.0 0.00 0.00 0.00 55 1009.9
20260506140805 73 100 10.0 17.0 0.00 0.00 0.00 54 1009.9
20260506140304 74 44 12.0 18.0 0.00 0.00 0.00 53 1009.9
20260506135805 74 102 9.0 15.0 0.00 0.00 0.00 54 1009.9
20260506135306 74 29 9.0 16.0 0.00 0.00 0.00 53 1009.9
20260506134805 74 74 8.0 16.0 0.00 0.00 0.00 53 1009.9
20260506133804 73 107 10.0 18.0 0.00 0.00 0.00 55 1009.9
20260506133305 74 65 6.0 17.0 0.00 0.00 0.00 53 1010.0
20260506132805 75 44 7.0 13.0 0.00 0.00 0.00 53 1010.0
20260506132307 75 76 8.0 14.0 0.00 0.00 0.00 54 1010.0
20260506131805 74 71 9.0 16.0 0.00 0.00 0.00 54 1010.0
20260506131304 74 79 9.0 15.0 0.00 0.00 0.00 53 1010.0
20260506130805 74 92 10.0 20.0 0.00 0.00 0.00 52 1010.1
20260506130305 74 20 8.0 15.0 0.00 0.00 0.00 51 1010.1
20260506125804 74 64 9.0 15.0 0.00 0.00 0.00 52 1010.2
20260506125305 74 47 9.0 14.0 0.00 0.00 0.00 52 1010.2
20260506124804 73 56 10.0 18.0 0.00 0.00 0.00 52 1010.3
20260506124305 74 69 9.0 16.0 0.00 0.00 0.00 48 1010.3
20260506123804 74 85 7.0 12.0 0.00 0.00 0.00 48 1010.3
20260506123304 75 70 8.0 15.0 0.00 0.00 0.00 48 1010.4
20260506122804 75 46 8.0 14.0 0.00 0.00 0.00 51 1010.4
20260506122306 74 106 6.0 12.0 0.00 0.00 0.00 51 1010.4
20260506121804 74 40 6.0 15.0 0.00 0.00 0.00 49 1010.4
20260506121305 74 35 7.0 13.0 0.00 0.00 0.00 48 1010.4
20260506120804 74 25 6.0 13.0 0.00 0.00 0.00 48 1010.5
20260506120304 74 77 7.0 13.0 0.00 0.00 0.00 50 1010.5
20260506115804 74 31 9.0 13.0 0.00 0.00 0.00 50 1010.5
20260506115307 74 84 6.0 10.0 0.00 0.00 0.00 51 1010.5
20260506114805 74 39 7.0 14.0 0.00 0.00 0.00 51 1010.6
20260506114304 74 107 9.0 16.0 0.00 0.00 0.00 51 1010.6
20260506113304 74 41 7.0 12.0 0.00 0.00 0.00 51 1010.7
20260506112804 74 125 7.0 14.0 0.00 0.00 0.00 52 1010.7
20260506111804 73 83 6.0 13.0 0.00 0.00 0.00 52 1010.9
20260506111304 74 94 6.0 13.0 0.00 0.00 0.00 54 1010.8
20260506110804 74 36 6.0 12.0 0.00 0.00 0.00 53 1010.8
20260506110305 74 128 6.0 13.0 0.00 0.00 0.00 52 1010.9
20260506105804 73 112 6.0 15.0 0.00 0.00 0.00 52 1010.9
20260506105305 72 43 5.0 14.0 0.00 0.00 0.00 54 1010.9
20260506104805 73 74 5.0 12.0 0.00 0.00 0.00 54 1010.9
20260506104305 72 43 7.0 12.0 0.00 0.00 0.00 55 1011.0
20260506103805 72 71 5.0 9.0 0.00 0.00 0.00 57 1011.0
20260506103304 71 53 6.0 12.0 0.00 0.00 0.00 58 1011.0
20260506102805 71 108 4.0 12.0 0.00 0.00 0.00 56 1011.1
20260506101804 72 111 7.0 12.0 0.00 0.00 0.00 56 1011.2
20260506101305 71 81 4.0 12.0 0.00 0.00 0.00 56 1011.2
20260506100804 71 81 6.0 9.0 0.00 0.00 0.00 56 1011.2
20260506100305 71 71 3.0 8.0 0.00 0.00 0.00 56 1011.2
20260506094805 71 101 2.0 6.0 0.00 0.00 0.00 57 1011.2
20260506094305 70 113 3.0 7.0 0.00 0.00 0.00 58 1011.2
20260506093805 70 148 3.0 8.0 0.00 0.00 0.00 57 1011.1
20260506093304 71 149 2.0 10.0 0.00 0.00 0.00 56 1011.1
20260506092804 71 145 3.0 9.0 0.00 0.00 0.00 56 1011.1
20260506092306 70 93 4.0 8.0 0.00 0.00 0.00 57 1011.0
20260506091805 70 107 3.0 7.0 0.00 0.00 0.00 58 1011.0
20260506091304 70 121 3.0 7.0 0.00 0.00 0.00 59 1011.0
20260506090804 69 96 3.0 8.0 0.00 0.00 0.00 58 1011.0
20260506085804 70 78 3.0 6.0 0.00 0.00 0.00 58 1010.9
20260506085306 70 100 3.0 8.0 0.00 0.00 0.00 58 1010.9
20260506084804 70 103 3.0 8.0 0.00 0.00 0.00 59 1010.9
20260506084304 69 118 5.0 12.0 0.00 0.00 0.00 59 1011.0
20260506083804 69 98 3.0 6.0 0.00 0.00 0.00 59 1011.0
20260506083305 69 96 3.0 5.0 0.00 0.00 0.00 59 1011.0
20260506082805 69 85 2.0 5.0 0.00 0.00 0.00 60 1011.0
20260506081304 68 58 3.0 6.0 0.00 0.00 0.00 62 1011.0
20260506080804 68 74 2.0 5.0 0.00 0.00 0.00 64 1010.9
20260506080304 67 336 2.0 3.0 0.00 0.00 0.00 63 1010.9
20260506072804 65 336 2.0 3.0 0.00 0.00 0.00 69 1010.9
20260506072305 65 324 2.0 6.0 0.00 0.00 0.00 69 1011.0
20260506071805 64 313 2.0 3.0 0.00 0.00 0.00 71 1011.0
20260506071304 64 315 2.0 3.0 0.00 0.00 0.00 72 1011.0
20260506070804 63 314 2.0 3.0 0.00 0.00 0.00 73 1011.0
20260506062305 61 59 1.0 5.0 0.00 0.00 0.00 76 1010.9
20260506061804 61 59 0.0 2.0 0.00 0.00 0.00 76 1010.9
20260506060805 61 59 0.0 2.0 0.00 0.00 0.00 77 1010.8
20260506060304 61 59 0.0 2.0 0.00 0.00 0.00 77 1010.8
20260506051304 60 59 0.0 2.0 0.00 0.00 0.00 81 1010.4
20260506050805 60 59 0.0 0.0 0.00 0.00 0.00 81 1010.4
20260506050304 60 59 0.0 0.0 0.00 0.00 0.00 81 1010.3
20260506044804 61 61 0.0 2.0 0.00 0.00 0.00 79 1010.2
20260506044304 61 61 0.0 1.0 0.00 0.00 0.00 79 1010.1
20260506043804 61 61 0.0 2.0 0.00 0.00 0.00 78 1010.2
20260506043304 61 61 0.0 3.0 0.00 0.00 0.00 78 1010.1
20260506042305 61 61 0.0 0.0 0.00 0.00 0.00 78 1010.1
20260506041804 61 61 0.0 1.0 0.00 0.00 0.00 78 1010.1
20260506041304 61 61 1.0 5.0 0.00 0.00 0.00 77 1010.1
20260506040304 61 61 2.0 3.0 0.00 0.00 0.00 77 1010.1
20260506035804 61 61 1.0 2.0 0.00 0.00 0.00 78 1010.1
20260506035306 61 61 1.0 2.0 0.00 0.00 0.00 78 1010.1
20260506034804 61 61 0.0 2.0 0.00 0.00 0.00 78 1010.1
20260506034305 61 61 0.0 1.0 0.00 0.00 0.00 78 1010.1
20260506033304 61 61 0.0 0.0 0.00 0.00 0.00 78 1010.1
20260506032804 61 61 0.0 0.0 0.00 0.00 0.00 78 1010.2
20260506032306 61 61 1.0 2.0 0.00 0.00 0.00 78 1010.1
20260506031804 61 61 1.0 2.0 0.00 0.00 0.00 77 1010.1
20260506031304 61 61 0.0 1.0 0.00 0.00 0.00 78 1010.1
20260506030803 61 61 1.0 2.0 0.00 0.00 0.00 77 1010.1
20260506025804 62 61 0.0 1.0 0.00 0.00 0.00 77 1010.1
20260506024304 62 61 0.0 0.0 0.00 0.00 0.00 76 1010.2
20260506023804 62 61 0.0 3.0 0.00 0.00 0.00 76 1010.2
20260506023304 62 62 1.0 2.0 0.00 0.00 0.00 75 1010.2
20260506022804 62 61 0.0 0.0 0.00 0.00 0.00 76 1010.2
20260506022306 62 61 0.0 2.0 0.00 0.00 0.00 75 1010.2
20260506021804 62 61 0.0 2.0 0.00 0.00 0.00 76 1010.2
20260506021304 62 61 1.0 2.0 0.00 0.00 0.00 75 1010.2
20260506020805 62 61 0.0 2.0 0.00 0.00 0.00 75 1010.2
20260506015804 63 61 1.0 2.0 0.00 0.00 0.00 75 1010.1
20260506015306 63 61 1.0 2.0 0.00 0.00 0.00 76 1010.1
20260506014804 63 61 1.0 3.0 0.00 0.00 0.00 76 1010.1
20260506014304 63 61 1.0 3.0 0.00 0.00 0.00 76 1010.1
20260506013803 62 56 1.0 3.0 0.00 0.00 0.00 77 1010.1
20260506011804 62 61 2.0 5.0 0.00 0.00 0.00 77 1010.3
20260506011304 62 61 2.0 3.0 0.00 0.00 0.00 78 1010.2
20260506010804 62 61 2.0 3.0 0.00 0.00 0.00 78 1010.2
20260506010304 62 61 2.0 3.0 0.00 0.00 0.00 78 1010.2
20260506005306 63 61 1.0 3.0 0.00 0.00 0.00 77 1010.2
20260506004805 63 61 1.0 2.0 0.00 0.00 0.00 77 1010.3
20260506004304 63 61 1.0 3.0 0.00 0.00 0.00 76 1010.3
20260506003804 64 61 1.0 3.0 0.00 0.00 0.00 75 1010.4
20260506003304 64 61 1.0 3.0 0.00 0.00 0.00 75 1010.4
20260506002804 65 52 2.0 3.0 0.00 0.00 0.00 74 1010.5
20260506002306 65 60 1.0 2.0 0.00 0.00 0.00 74 1010.5
20260506001803 65 60 1.0 2.0 0.00 0.00 0.00 74 1010.5
20260506001304 65 61 1.0 3.0 0.00 0.00 0.00 73 1010.5
20260506000804 65 61 0.0 0.0 0.00 0.00 0.00 73 1010.6
20260505235804 66 61 2.0 3.0 0.00 0.00 0.00 73 1010.6
20260505235305 66 61 2.0 3.0 0.00 0.00 0.00 73 1010.6
20260505234304 66 61 2.0 3.0 0.00 0.00 0.00 73 1010.6
20260505233804 66 61 1.0 3.0 0.00 0.00 0.00 73 1010.6
20260505233304 66 56 3.0 5.0 0.00 0.00 0.00 73 1010.6
20260505232804 66 53 3.0 6.0 0.00 0.00 0.00 73 1010.5
20260505231304 66 53 2.0 7.0 0.00 0.00 0.00 72 1010.5
20260505230304 66 49 4.0 9.0 0.00 0.00 0.00 72 1010.4
20260505225804 66 55 5.0 10.0 0.00 0.00 0.00 72 1010.5
20260505225306 66 30 4.0 9.0 0.00 0.00 0.00 71 1010.5
20260505224803 66 26 5.0 12.0 0.00 0.00 0.00 71 1010.6
20260505224304 67 17 5.0 9.0 0.00 0.00 0.00 71 1010.6
20260505223804 67 25 4.0 7.0 0.00 0.00 0.00 70 1010.6
20260505223304 67 354 3.0 7.0 0.00 0.00 0.00 70 1010.6
20260505222804 66 46 4.0 10.0 0.00 0.00 0.00 70 1010.6
20260505222305 66 57 3.0 12.0 0.00 0.00 0.00 71 1010.6
20260505221804 66 63 4.0 12.0 0.00 0.00 0.00 71 1010.6
20260505220818 66 31 6.0 13.0 0.00 0.00 0.00 72 1010.6
20260505220305 66 13 6.0 10.0 0.00 0.00 0.00 72 1010.5
20260505215804 66 54 6.0 13.0 0.00 0.00 0.00 73 1010.4
20260505215305 66 46 5.0 14.0 0.00 0.00 0.00 73 1010.3
20260505214804 66 40 5.0 14.0 0.00 0.00 0.00 73 1010.3
20260505213804 66 23 5.0 14.0 0.00 0.00 0.00 75 1009.9
20260505213304 66 41 7.0 13.0 0.00 0.00 0.00 75 1009.8
20260505212804 67 41 7.0 20.0 0.00 0.00 0.00 76 1009.7
20260505212305 67 18 9.0 17.0 0.00 0.00 0.00 77 1009.7
20260505211804 67 28 6.0 14.0 0.00 0.00 0.00 77 1009.7
20260505211304 67 7 8.0 18.0 0.00 0.00 0.00 78 1009.6
20260505210804 68 15 10.0 17.0 0.00 0.00 0.00 78 1009.6
20260505210304 68 14 9.0 17.0 0.00 0.00 0.00 77 1009.6
20260505205804 69 11 9.0 18.0 0.00 0.00 0.00 77 1009.5
20260505205305 69 0 7.0 13.0 0.00 0.00 0.00 76 1009.3
20260505204803 69 19 7.0 13.0 0.00 0.00 0.00 76 1009.1
20260505204304 69 17 6.0 15.0 0.00 0.00 0.00 75 1009.0
20260505203804 70 17 7.0 12.0 0.00 0.00 0.00 74 1009.0
20260505203304 71 10 5.0 12.0 0.00 0.00 0.00 72 1008.9
20260505202803 71 24 5.0 14.0 0.00 0.00 0.00 70 1008.8